This is the latest recevied weather packets stored in our database for station/object W7JFO-3. If no packets are shown the sender has not sent any weather packets the latest 1 day(s).
| Time | Temp. | Humidity | Pressure | Rain* | Wind** | Luminosity | Snow |
|---|---|---|---|---|---|---|---|
| 1778035602 | 8.89° C | 43% | 1013 hPa | 0 mm | 6.26 m/s, 101° | 9 W/m² | - |
| 1778034702 | 9.44° C | 41% | 1012.6 hPa | 0 mm | 5.36 m/s, 122° | 18 W/m² | - |
| 1778033802 | 10° C | 41% | 1012.4 hPa | 0 mm | 4.47 m/s, 107° | 23 W/m² | - |
| 1778032902 | 10° C | 40% | 1012.4 hPa | 0 mm | 4.92 m/s, 70° | 56 W/m² | - |
| 1778032002 | 10.56° C | 40% | 1012.5 hPa | 0 mm | 4.92 m/s, 81° | 42 W/m² | - |
| 1778031103 | 10.56° C | 39% | 1012.6 hPa | 0 mm | 4.47 m/s, 96° | 118 W/m² | - |
| 1778030203 | 11.11° C | 37% | 1012.2 hPa | 0 mm | 4.02 m/s, 80° | 102 W/m² | - |
| 1778029303 | 11.67° C | 37% | 1012.3 hPa | 0 mm | 3.13 m/s, 69° | 46 W/m² | - |
| 1778028403 | 11.67° C | 36% | 1012.3 hPa | 0 mm | 3.58 m/s, 73° | 294 W/m² | - |
| 1778027503 | 11.67° C | 36% | 1012.6 hPa | 0 mm | 4.02 m/s, 66° | 334 W/m² | - |
| 1778026603 | 12.22° C | 35% | 1012.4 hPa | 0 mm | 4.02 m/s, 132° | 392 W/m² | - |
| 1778025703 | 12.78° C | 34% | 1012.4 hPa | 0 mm | 1.79 m/s, 74° | 439 W/m² | - |
| 1778024803 | 12.78° C | 35% | 1012.8 hPa | 0 mm | 2.68 m/s, 80° | 464 W/m² | - |
| 1778023903 | 12.78° C | 33% | 1012.5 hPa | 0 mm | 3.13 m/s, 83° | 501 W/m² | - |
| 1778023003 | 13.33° C | 32% | 1012.5 hPa | 0 mm | 1.79 m/s, 108° | 552 W/m² | - |
| 1778022103 | 13.33° C | 33% | 1013 hPa | 0 mm | 0.89 m/s, 145° | 587 W/m² | - |
| 1778021203 | 12.78° C | 34% | 1013 hPa | 0 mm | 1.79 m/s, 321° | 621 W/m² | - |
| 1778020303 | 12.78° C | 33% | 1013 hPa | 0 mm | 1.34 m/s, 355° | 659 W/m² | - |
| 1778019403 | 12.78° C | 33% | 1013.2 hPa | 0 mm | 1.79 m/s, 57° | 687 W/m² | - |
| 1778018503 | 12.78° C | 35% | 1013.3 hPa | 0 mm | 1.79 m/s, 47° | 724 W/m² | - |
| 1778017603 | 12.22° C | 33% | 1013.7 hPa | 0 mm | 2.24 m/s, 92° | 229 W/m² | - |
| 1778016703 | 12.22° C | 34% | 1013.6 hPa | 0 mm | 1.79 m/s, 80° | 779 W/m² | - |
| 1778015803 | 12.22° C | 34% | 1013.7 hPa | 0 mm | 2.68 m/s, 38° | 796 W/m² | - |
| 1778014903 | 11.67° C | 35% | 1014.1 hPa | 0 mm | 3.13 m/s, 51° | 824 W/m² | - |
| 1778014003 | 11.67° C | 37% | 1013.9 hPa | 0 mm | 2.24 m/s, 92° | 197 W/m² | - |
* Rain latest hour (hover to see other rain measurements)
** Current wind speed in m/s (hover to see current wind gust speed)